Location: Cahas Mountain Overlook
(37.0833°N, 80.1000°W)
Time: 20:03:50
(UTC-04:00)

Courier 1B - Pass Details

Date: 13 December 2023
Orbit: 962 x 1208 km, 28.3° (Epoch: 10 September)

Event Time Altitude Azimuth Distance (km) Brightness Sun altitude
Rises 04:08:45 0° 207° (SSW) 4,084 - -38.3°
Reaches altitude 10° 04:12:59 10° 187° (S) 3,098 - -37.4°
Exits shadow 04:14:16 13° 178° (S) 2,888 10.0 -37.2°
Maximum altitude 04:17:12 16° 153° (SSE) 2,661 10.0 -36.6°
Drops below altitude 10° 04:21:19 10° 120° (ESE) 3,025 10.7 -35.8°
Sets 04:25:22 0° 99° (E) 3,937 11.7 -35.0°
